Location: Aufkirchen
(47.9603°N, 11.3653°E)
Time: 06:25:04
(UTC+01:00)

Transit 2A - Pass Details

Date: 26 November 2020
Orbit: 599 x 960 km, 66.7° (Epoch: 25 January)

Event Time Altitude Azimuth Distance (km) Brightness Sun altitude
Rises 21:36:06 0° 288° (WNW) 3,572 10.1 -50.3°
Enters shadow 21:39:11 - 306° (NW) 2,777 9.4 -50.8°
Reaches altitude 10° 21:40:13 10° 314° (NW) 2,569 - -50.9°
Maximum altitude 21:43:05 14° 343° (NNW) 2,269 - -51.4°
Drops below altitude 10° 21:45:52 10° 12° (NNE) 2,461 - -51.7°
Sets 21:49:38 0° 39° (NE) 3,308 - -52.3°
